Weather History for KCVX - October, 2013

Change the Weather History Date:

Monday, October 7, 2013

  Actual Average Record
Temperature  
Mean Temperature 52 °F -  
Max Temperature 56 °F 60 °F 84 °F (2007)
Min Temperature 49 °F 48 °F 36 °F (2012)
Degree Days  
Heating Degree Days 12    
Growing Degree Days 2 (Base 50)    
Moisture  
Dew Point 47 °F    
Average Humidity 79    
Maximum Humidity 99    
Minimum Humidity 61    
Precipitation  
Precipitation 0.00 in - - ()
Sea Level Pressure  
Sea Level Pressure 29.78 in    
Wind  
Wind Speed 12 mph (NW)    
Max Wind Speed 22 mph    
Max Gust Speed 29 mph    
Visibility 9 miles    
Events Rain    
Averages and records for this station are not official NWS values.
T = Trace of Precipitation, MM = Missing Value Source: NWS Daily Summary

Daily Weather History Graph

Daily Weather History Graph

Search for Another Location

Airport or City:

Trip Planner

Search our weather history database for the weather conditions in past years. The results will help you decide how hot, cold, wet, or windy it might be!

Date:

Astronomy

Oct. 07, 2013 Rise Set
Actual Time 7:47 AM EDT 7:09 PM EDT
Civil Twilight 7:17 AM EDT 7:39 PM EDT
Nautical Twilight 6:43 AM EDT 8:13 PM EDT
Astronomical Twilight 6:08 AM EDT 8:47 PM EDT
Moon 10:45 AM EDT (10/7) 8:44 PM EDT (10/7)
Length of Visible Light 12h 21m
Length of Day
11h 22m
Waxing Crescent, 8% of the Moon is Illuminated
Oct 7
Waxing Crescent
Oct 11
First Quarter
Oct 18
Full
Oct 26
Last Quarter
Nov 3
New

Hourly Weather History & Observations

Time (EDT) Temp. Dew Point Humidity Pressure Visibility Wind Dir Wind Speed Gust Speed Precip Events Conditions
12:14 AM 52.2 °F 50.0 °F 92% 29.64 in 10.0 mi SSW 6.9 mph - N/A   Scattered Clouds
12:35 AM 52.2 °F 50.0 °F 92% 29.63 in 10.0 mi SW 6.9 mph - N/A   Scattered Clouds
12:55 AM 52.5 °F 50.0 °F 91% 29.63 in 10.0 mi SW 5.8 mph - N/A   Scattered Clouds
1:14 AM 54.1 °F 49.1 °F 83% 29.62 in 10.0 mi WSW 10.4 mph - N/A   Overcast
1:35 AM 55.6 °F 47.1 °F 73% 29.61 in 10.0 mi WSW 12.7 mph 17.3 mph N/A   Mostly Cloudy
1:55 AM 55.4 °F 47.3 °F 74% 29.61 in 10.0 mi SW 10.4 mph 18.4 mph N/A   Scattered Clouds
2:14 AM 55.4 °F 49.1 °F 79% 29.61 in 10.0 mi WSW 11.5 mph 16.1 mph N/A   Scattered Clouds
2:35 AM 56.5 °F 51.1 °F 82% 29.60 in 10.0 mi West 13.8 mph 19.6 mph N/A   Mostly Cloudy
2:55 AM 55.6 °F 51.4 °F 86% 29.59 in 10.0 mi SW 8.1 mph - N/A   Mostly Cloudy
3:14 AM 56.3 °F 54.3 °F 93% 29.59 in 10.0 mi WSW 8.1 mph - N/A   Mostly Cloudy
3:35 AM 54.7 °F 54.3 °F 99% 29.59 in 3.0 mi WNW 6.9 mph 10.4 mph N/A Rain Heavy Rain
3:54 AM 54.1 °F 54.0 °F 99% 29.59 in 5.0 mi NNW 6.9 mph - N/A Rain Rain
4:14 AM 54.3 °F 54.0 °F 99% 29.59 in 5.0 mi NW 13.8 mph 17.3 mph N/A Rain Heavy Rain
4:35 AM 53.2 °F 52.9 °F 99% 29.60 in 10.0 mi NW 11.5 mph - N/A Rain Light Rain
4:54 AM 53.2 °F 52.7 °F 98% 29.60 in 7.0 mi NW 12.7 mph 16.1 mph N/A Rain Rain
5:15 AM 52.3 °F 51.8 °F 98% 29.61 in 5.0 mi NW 13.8 mph 18.4 mph N/A Rain Rain
5:34 AM 52.0 °F 51.6 °F 99% 29.62 in 5.0 mi NW 12.7 mph 18.4 mph N/A Rain Rain
5:54 AM 51.4 °F 50.9 °F 98% 29.62 in 5.0 mi NW 13.8 mph 19.6 mph N/A Rain Light Rain
6:15 AM 51.4 °F 51.1 °F 99% 29.62 in 5.0 mi WNW 11.5 mph 19.6 mph N/A   Drizzle
6:34 AM 50.7 °F 50.2 °F 98% 29.63 in 5.0 mi NW 12.7 mph 17.3 mph N/A Rain Rain
6:55 AM 50.7 °F 50.0 °F 97% 29.64 in 10.0 mi NW 13.8 mph 18.4 mph N/A Rain Light Rain
7:15 AM 50.5 °F 49.3 °F 95% 29.64 in 10.0 mi NNW 10.4 mph 16.1 mph N/A   Overcast
7:34 AM 50.9 °F 48.7 °F 92% 29.65 in 10.0 mi NW 11.5 mph 17.3 mph N/A   Overcast
7:55 AM 50.5 °F 48.6 °F 93% 29.65 in 7.0 mi NW 16.1 mph - N/A   Overcast
8:14 AM 50.5 °F 48.6 °F 93% 29.66 in 10.0 mi WNW 19.6 mph 25.3 mph N/A   Overcast
8:35 AM 50.2 °F 48.0 °F 92% 29.67 in 10.0 mi NW 16.1 mph 21.9 mph N/A   Overcast
8:54 AM 49.6 °F 47.3 °F 92% 29.68 in 10.0 mi NW 17.3 mph 24.2 mph N/A Rain Light Rain
9:14 AM 49.8 °F 46.8 °F 89% 29.68 in 10.0 mi NW 18.4 mph 24.2 mph N/A Rain Light Rain
9:35 AM 50.0 °F 45.9 °F 86% 29.69 in 10.0 mi NW 15.0 mph 20.7 mph N/A   Overcast
9:54 AM 50.2 °F 45.7 °F 85% 29.70 in 10.0 mi NNW 16.1 mph 23.0 mph N/A   Overcast
10:15 AM 50.4 °F 45.3 °F 83% 29.71 in 10.0 mi NW 19.6 mph 24.2 mph N/A   Overcast
10:35 AM 51.4 °F 45.3 °F 80% 29.72 in 10.0 mi NW 15.0 mph 20.7 mph N/A   Mostly Cloudy
10:54 AM 52.0 °F 44.8 °F 76% 29.72 in 10.0 mi NW 13.8 mph 21.9 mph N/A   Mostly Cloudy
11:15 AM 52.9 °F 44.6 °F 73% 29.73 in 10.0 mi NW 18.4 mph 24.2 mph N/A   Mostly Cloudy
11:35 AM 53.4 °F 45.7 °F 75% 29.74 in 10.0 mi NW 17.3 mph 23.0 mph N/A   Mostly Cloudy
11:54 AM 53.6 °F 45.7 °F 75% 29.75 in 10.0 mi NW 13.8 mph 23.0 mph N/A   Mostly Cloudy
12:15 PM 55.0 °F 46.2 °F 72% 29.76 in 10.0 mi NW 12.7 mph 27.6 mph N/A   Scattered Clouds
12:35 PM 55.0 °F 44.4 °F 67% 29.77 in 10.0 mi NW 17.3 mph 24.2 mph N/A   Scattered Clouds
12:54 PM 53.6 °F 45.1 °F 73% 29.77 in 10.0 mi NW 15.0 mph 21.9 mph N/A   Overcast
1:15 PM 53.8 °F 46.0 °F 75% 29.78 in 10.0 mi WNW 17.3 mph 21.9 mph N/A   Overcast
1:34 PM 53.1 °F 45.9 °F 77% 29.78 in 10.0 mi West 17.3 mph 24.2 mph N/A   Overcast
1:54 PM 54.5 °F 46.8 °F 75% 29.78 in 10.0 mi West 20.7 mph 26.5 mph N/A   Overcast
2:15 PM 55.8 °F 47.7 °F 74% 29.79 in 10.0 mi WNW 18.4 mph 25.3 mph N/A   Mostly Cloudy
2:34 PM 56.3 °F 47.5 °F 72% 29.80 in 10.0 mi West 21.9 mph 28.8 mph N/A   Mostly Cloudy
2:54 PM 56.8 °F 46.0 °F 67% 29.80 in 10.0 mi West 17.3 mph 26.5 mph N/A   Mostly Cloudy
3:15 PM 56.3 °F 46.8 °F 70% 29.81 in 10.0 mi West 20.7 mph 26.5 mph N/A   Mostly Cloudy
3:34 PM 56.1 °F 46.6 °F 70% 29.82 in 10.0 mi WNW 18.4 mph 27.6 mph N/A   Overcast
3:55 PM 54.3 °F 47.8 °F 79% 29.84 in 10.0 mi West 20.7 mph 25.3 mph N/A Rain Rain
4:15 PM 53.6 °F 46.6 °F 77% 29.85 in 10.0 mi WNW 10.4 mph 24.2 mph N/A Rain Light Rain
4:34 PM 54.5 °F 45.5 °F 72% 29.86 in 10.0 mi NW 17.3 mph 21.9 mph N/A   Overcast
4:55 PM 53.8 °F 45.9 °F 75% 29.87 in 10.0 mi NW 13.8 mph 19.6 mph N/A   Overcast
5:15 PM 54.3 °F 46.0 °F 74% 29.89 in 10.0 mi NW 13.8 mph 21.9 mph N/A   Overcast
5:34 PM 54.5 °F 44.4 °F 69% 29.90 in 10.0 mi NW 11.5 mph 23.0 mph N/A   Mostly Cloudy
5:55 PM 54.7 °F 43.5 °F 66% 29.91 in 10.0 mi NW 11.5 mph 21.9 mph N/A   Mostly Cloudy
6:15 PM 54.5 °F 44.4 °F 69% 29.92 in 10.0 mi NNW 12.7 mph 20.7 mph N/A   Overcast
6:34 PM 53.6 °F 44.2 °F 71% 29.93 in 10.0 mi NW 12.7 mph 18.4 mph N/A   Mostly Cloudy
6:55 PM 53.6 °F 42.8 °F 67% 29.94 in 10.0 mi NNW 12.7 mph 18.4 mph N/A   Mostly Cloudy
7:14 PM 53.4 °F 42.1 °F 65% 29.95 in 10.0 mi NNW 13.8 mph 19.6 mph N/A   Mostly Cloudy
7:34 PM 53.1 °F 42.1 °F 66% 29.97 in 10.0 mi NNW 11.5 mph 19.6 mph N/A   Mostly Cloudy
7:55 PM 52.7 °F 43.3 °F 70% 29.98 in 10.0 mi NNW 11.5 mph 16.1 mph N/A   Mostly Cloudy
8:14 PM 52.3 °F 42.6 °F 69% 29.99 in 10.0 mi NNW 12.7 mph 16.1 mph N/A   Scattered Clouds
8:34 PM 52.3 °F 41.4 °F 66% 30.00 in 10.0 mi NNW 11.5 mph 18.4 mph N/A   Clear
8:55 PM 52.3 °F 41.7 °F 67% 30.01 in 10.0 mi NNW 10.4 mph 17.3 mph N/A   Clear
9:14 PM 52.2 °F 41.4 °F 67% 30.02 in 10.0 mi NNW 11.5 mph 18.4 mph N/A   Clear
9:35 PM 52.2 °F 40.6 °F 65% 30.03 in 10.0 mi NNW 13.8 mph 19.6 mph N/A   Clear
9:55 PM 52.2 °F 40.3 °F 64% 30.04 in 10.0 mi NW 13.8 mph - N/A   Clear
10:14 PM 52.0 °F 40.8 °F 66% 30.05 in 10.0 mi NW 9.2 mph - N/A   Clear
10:35 PM 52.3 °F 41.0 °F 65% 30.06 in 10.0 mi NW 10.4 mph - N/A   Scattered Clouds
10:55 PM 52.5 °F 40.6 °F 64% 30.06 in 10.0 mi WNW 11.5 mph 19.6 mph N/A   Clear
11:14 PM 52.7 °F 40.1 °F 62% 30.07 in 10.0 mi NW 12.7 mph 16.1 mph N/A   Clear
11:35 PM 52.3 °F 39.2 °F 61% 30.07 in 10.0 mi WNW 9.2 mph 17.3 mph N/A   Clear
11:55 PM 52.5 °F 39.9 °F 62% 30.08 in 10.0 mi WNW 8.1 mph - N/A   Clear